Location: Newark
(44.2003°N, 3.2583°E)
Time: 03:29:53
(UTC+00:00)

Explorer 7 - Pass Details

Date: 25 October 2019
Orbit: 485 x 680 km, 50.3° (Epoch: 14 November)

Event Time Altitude Azimuth Distance (km) Brightness Sun altitude
Rises 08:42:29 0° 217° (SW) 2,603 10.4 22.0°
Reaches altitude 10° 08:44:49 10° 208° (SSW) 1,698 9.6 22.3°
Maximum altitude 08:48:19 35° 142° (SE) 801 9.8 22.7°
Drops below altitude 10° 08:51:47 10° 75° (ENE) 1,669 9.7 23.1°
Sets 08:54:03 0° 66° (ENE) 2,550 10.5 23.4°
